Theta_e
314 319 316 310 309 304 307 311 306 304 305 305 305 305 306 306 307 307 307 306 306 306 306 306 306 306 306 307 306 308 306 307 313 313 313 311 307 306 306 307 307 307 308 309 310 310 311 311 310 311 312 313 313 313 312 312 312 318 324 321 316 316 313 310 310 310 310 308 306 306 305 307 308 307 306 307 306 306 306 307 307 307 307 307 307 307 306 306
311 318 312 306 308 305 305 307 304 304 305 305 305 306 306 307 307 307 307 308 307 306 307 307 307 307 307 307 307 307 306 308 312 313 313 309 305 306 307 307 306 306 307 309 311 310 310 310 310 311 312 313 313 312 312 311 311 317 323 321 316 313 310 307 308 308 309 308 307 306 306 308 308 307 307 307 307 307 307 308 308 307 308 307 307 307 306 306
308 314 309 304 306 304 307 308 303 304 305 305 305 306 306 307 308 308 307 307 307 307 308 309 308 308 308 307 307 307 306 311 313 311 311 307 305 306 306 307 306 306 307 308 309 308 310 310 310 310 311 312 312 312 312 311 311 315 318 318 313 308 307 307 307 307 308 308 307 307 307 307 307 307 307 307 307 308 308 308 308 308 308 307 308 308 307 307
307 313 308 302 303 303 307 307 303 304 305 305 305 305 306 307 308 308 308 307 307 308 308 308 308 307 308 308 307 307 308 316 315 310 310 306 305 307 306 307 306 305 307 307 308 308 309 310 311 311 312 311 311 311 310 310 312 312 312 312 310 307 307 306 306 307 307 308 308 307 306 307 307 307 306 306 307 308 307 306 306 306 306 306 308 309 308 308
307 310 304 301 302 302 303 303 303 305 305 305 305 305 306 306 308 309 308 308 307 308 308 308 306 306 307 307 306 308 313 319 316 310 308 306 305 307 306 307 306 306 307 307 308 309 310 311 313 313 312 312 311 311 308 308 310 309 308 308 308 308 307 305 305 306 306 307 308 307 306 307 306 306 306 306 306 308 307 307 306 306 306 306 307 307 307 307
304 303 301 301 302 302 302 303 304 305 305 305 304 305 306 307 308 309 308 308 308 308 309 309 307 306 308 308 307 310 316 318 313 309 308 306 306 306 307 307 306 307 307 308 309 309 309 310 313 313 312 311 311 310 309 309 309 309 307 307 308 307 306 305 305 305 306 306 307 307 306 306 306 307 307 307 307 308 308 307 307 307 306 306 305 305 306 306
301 301 302 302 302 302 303 304 304 305 304 304 304 305 306 307 308 309 309 308 309 309 309 310 310 310 311 313 313 314 317 315 310 309 309 307 306 307 307 307 307 308 309 310 312 313 315 312 311 313 312 311 310 309 309 309 309 308 307 306 306 306 305 305 305 306 306 306 306 306 306 306 307 308 307 307 307 308 308 307 307 307 306 306 305 305 306 306
301 301 302 302 303 303 303 304 304 303 303 304 305 306 306 308 309 309 310 309 309 309 309 309 309 311 310 315 320 317 316 313 309 309 308 308 307 307 308 308 308 310 310 312 313 318 322 317 313 313 311 310 309 310 310 310 309 307 306 306 306 305 305 305 305 306 306 306 306 306 307 307 308 307 306 306 306 307 308 307 307 306 306 305 306 306 305 305
301 301 302 302 302 303 303 303 303 303 304 305 305 306 308 309 310 309 309 309 309 309 309 309 309 309 306 313 323 319 313 310 309 309 308 309 309 307 308 309 311 311 311 313 313 317 321 318 316 314 310 309 309 309 310 311 309 307 306 306 306 305 305 306 306 306 306 307 307 307 306 307 308 307 307 307 307 308 308 307 307 306 306 306 306 306 306 306
301 302 302 302 302 302 303 303 303 304 304 306 305 307 309 310 309 309 309 309 309 309 309 309 308 308 308 314 324 320 312 309 309 309 309 311 310 307 307 309 312 312 312 313 313 316 319 317 317 317 312 311 309 308 309 310 309 307 306 306 306 306 306 306 307 306 306 306 307 308 307 307 308 307 308 308 308 308 308 307 307 307 307 306 307 307 306 306
302 302 302 302 302 302 303 304 304 305 306 305 306 309 310 310 309 309 309 309 309 309 309 310 311 313 313 316 323 319 311 309 310 309 309 311 311 308 307 309 312 312 312 312 310 312 315 315 318 321 317 312 310 308 307 308 307 306 307 306 306 306 306 305 306 306 306 306 306 306 307 308 309 308 308 308 308 308 307 307 307 307 307 307 307 307 307 306
302 303 303 303 302 303 305 306 306 306 307 307 309 310 310 310 310 310 310 309 310 310 311 313 315 316 315 314 315 314 309 309 310 310 309 312 312 309 307 307 310 311 310 310 311 310 311 313 318 322 318 312 310 309 308 308 307 306 307 307 306 306 307 306 306 307 306 306 306 305 309 311 310 310 310 308 308 307 307 307 308 308 308 308 308 308 308 307
303 304 305 304 303 304 306 307 307 307 307 308 309 310 310 310 310 310 310 310 310 311 311 312 311 313 318 318 312 309 309 310 310 310 309 311 312 310 308 307 307 308 308 311 313 312 311 312 316 319 317 313 310 309 309 308 306 308 308 308 307 307 308 307 307 307 306 307 307 307 314 315 311 310 310 308 308 307 307 307 308 308 308 309 309 309 308 307
304 305 304 303 304 307 307 307 307 307 307 308 309 309 310 310 310 310 311 310 310 311 312 312 313 314 318 318 312 308 310 311 311 310 309 310 312 311 309 308 308 307 308 310 312 313 313 312 313 316 315 313 311 309 308 307 307 309 310 311 311 312 311 308 307 308 307 308 308 308 314 316 312 311 309 308 308 307 307 308 308 309 309 310 310 310 310 308
304 304 303 304 306 307 307 307 308 308 309 309 309 309 309 310 311 310 311 311 310 311 313 316 317 318 319 317 312 310 312 313 312 310 309 309 311 312 310 311 311 309 308 309 310 312 313 313 315 316 314 312 313 312 310 309 309 311 314 315 314 314 313 309 307 308 308 308 307 308 314 315 312 311 308 308 308 307 307 308 308 309 309 310 310 310 310 309
304 303 304 306 307 307 307 308 308 309 309 309 310 310 310 310 311 310 311 311 312 312 315 318 317 319 322 317 314 313 313 313 311 310 310 308 309 310 310 314 315 312 311 311 311 314 313 316 319 317 317 317 316 316 314 314 313 313 315 316 315 315 315 311 307 307 308 308 308 309 312 313 311 309 308 308 308 308 308 308 309 310 309 309 310 310 310 310
304 305 306 307 307 307 308 308 309 309 308 308 309 310 311 311 310 310 311 311 312 312 314 317 316 319 321 315 314 315 314 312 310 311 311 310 308 308 311 315 315 314 315 315 316 319 317 320 321 317 318 318 317 320 319 318 317 316 316 317 316 314 315 314 310 308 308 308 309 309 310 311 311 310 309 308 308 309 309 309 309 309 310 311 311 311 310 311
305 306 307 307 307 307 308 308 309 308 308 308 308 310 311 311 311 311 311 311 312 313 316 317 317 323 323 316 315 315 313 310 311 312 312 311 309 309 312 314 316 318 319 319 320 321 320 321 322 319 318 316 315 320 323 320 319 319 319 319 318 316 316 316 313 309 307 309 310 310 311 310 311 312 310 308 308 309 309 310 311 310 311 311 311 312 311 311
306 307 307 307 307 308 308 308 309 308 308 308 308 309 310 312 314 313 311 312 319 324 325 322 321 326 324 317 315 313 311 309 312 314 311 310 309 311 315 316 320 322 321 323 321 321 321 322 326 325 320 314 312 315 317 316 316 319 320 320 320 319 317 315 312 308 306 308 309 311 312 311 312 313 312 310 308 309 310 310 313 313 313 312 311 312 312 313
307 307 307 308 307 308 308 308 309 308 308 309 308 310 313 317 321 318 312 313 317 320 321 319 319 321 319 316 314 311 312 312 315 314 310 310 311 315 319 319 322 322 321 325 324 322 321 322 324 321 315 312 310 312 312 313 314 316 319 321 321 320 318 314 310 307 306 310 313 313 313 313 313 314 314 312 309 310 311 311 313 313 315 316 314 313 314 314
307 307 307 307 306 307 308 309 309 308 309 308 308 314 321 326 327 321 315 315 313 313 316 315 315 315 313 313 310 309 316 319 317 314 310 312 315 320 324 321 322 322 319 323 325 324 323 323 319 313 311 310 310 311 311 313 315 315 317 320 322 321 319 313 310 308 307 311 315 313 313 313 313 314 315 313 311 311 312 312 312 312 314 316 316 315 315 314
306 306 306 305 305 307 310 310 310 309 309 308 312 319 321 320 320 316 317 318 314 313 316 315 316 315 312 312 309 309 317 320 320 316 310 314 320 322 326 324 323 322 318 322 325 323 322 322 315 309 309 311 311 312 312 313 315 318 320 322 322 320 317 314 311 309 307 311 314 313 312 311 311 314 315 313 311 312 313 313 314 314 314 314 315 316 315 314
305 305 305 305 305 307 310 310 310 309 309 312 318 319 315 312 311 313 319 321 316 315 316 317 318 317 316 315 310 313 319 317 319 317 310 315 321 320 326 327 323 323 321 324 327 326 326 320 311 308 309 311 314 313 313 314 316 318 321 322 320 316 316 316 314 311 309 310 312 312 311 312 314 314 314 312 312 314 315 315 315 316 316 315 316 317 315 313
305 305 305 305 305 308 311 310 310 310 309 314 316 312 310 311 310 312 321 323 320 317 314 313 315 315 315 313 310 316 318 313 315 315 309 314 320 319 322 324 323 323 320 323 326 325 323 313 308 310 310 311 315 314 313 316 319 319 317 317 316 313 312 314 314 311 311 312 311 313 317 319 319 316 314 312 312 314 314 314 314 314 316 316 315 316 315 313
305 305 306 305 305 308 309 310 311 311 312 313 311 309 309 310 309 310 320 324 320 319 316 315 315 313 311 310 312 316 316 314 313 311 309 311 318 322 320 318 320 322 321 321 320 317 314 308 307 312 313 312 315 315 312 316 322 321 314 312 311 310 310 311 313 314 318 319 314 314 321 324 321 317 317 313 310 312 314 315 315 313 314 315 314 315 315 315
305 306 306 306 306 305 308 313 312 310 315 313 309 310 309 309 309 308 320 324 317 320 321 320 319 315 312 312 313 315 320 319 311 309 310 309 313 319 322 318 317 321 320 317 315 314 312 308 308 312 313 313 316 315 312 312 321 322 313 310 309 309 311 313 314 317 322 323 316 315 319 323 325 321 317 316 313 313 314 315 315 314 315 315 314 314 314 315
305 306 305 306 306 304 310 317 311 311 321 317 309 309 309 308 306 308 319 321 316 319 321 320 319 315 314 314 313 318 325 322 314 312 311 309 312 316 322 322 319 319 314 315 319 315 312 311 311 312 312 315 318 317 311 309 319 322 311 308 310 310 312 313 314 317 320 320 318 319 318 320 328 325 317 316 316 315 316 316 316 315 315 315 315 314 314 315
306 306 305 306 306 305 308 311 310 312 318 314 308 309 309 306 306 313 321 316 313 318 320 320 315 311 314 314 315 319 319 318 321 318 310 309 313 317 323 323 320 319 313 319 326 314 310 314 313 312 315 317 316 312 308 308 316 317 308 307 310 309 311 312 315 319 319 319 322 322 317 319 328 324 315 316 318 318 319 318 318 316 315 316 316 314 315 315
305 305 306 306 305 305 305 306 310 312 310 307 308 309 307 305 310 320 320 312 313 317 318 320 315 314 318 316 317 320 316 316 320 317 312 313 314 317 322 319 317 319 315 319 324 314 309 311 309 311 316 316 312 308 306 308 313 312 307 308 309 309 312 312 315 319 318 321 323 318 315 319 326 322 317 318 319 319 319 318 319 318 317 317 317 316 315 315
304 305 305 305 306 306 305 305 307 309 307 307 309 306 304 309 318 321 315 312 318 319 317 320 320 320 322 320 320 321 318 317 317 316 317 318 316 316 317 315 317 321 317 316 317 313 309 308 308 311 312 310 307 306 306 308 310 309 309 311 312 312 313 314 315 316 320 324 321 314 313 317 321 321 320 321 319 317 317 317 318 318 317 317 317 317 315 314
304 304 304 305 307 305 308 310 305 305 306 305 305 305 311 320 322 317 312 314 318 318 318 321 320 320 322 323 323 319 319 318 316 318 321 319 318 318 317 317 320 321 321 320 317 313 311 312 312 309 307 306 307 308 308 307 307 309 311 315 318 319 317 317 318 318 322 325 319 313 312 315 319 319 317 317 316 316 316 315 316 316 316 317 317 316 314 313
303 304 304 305 306 305 310 313 305 303 305 303 305 313 321 321 317 314 314 315 316 318 322 323 320 319 321 323 321 317 319 320 317 319 321 319 317 315 315 318 321 321 321 323 323 320 317 314 312 308 306 305 309 314 314 310 310 312 315 318 323 325 321 321 323 321 323 323 316 311 312 317 322 319 315 316 315 315 317 317 317 316 314 316 317 316 317 317
303 303 303 303 305 304 306 306 302 303 304 303 311 322 321 315 315 317 316 314 315 317 319 320 318 318 321 325 322 317 318 320 319 318 320 320 318 316 314 313 315 321 321 320 323 325 321 316 312 313 311 306 309 317 320 318 315 316 317 319 324 326 321 322 323 321 324 325 316 310 314 322 322 318 316 316 315 314 316 317 317 316 315 316 316 316 318 318
304 304 303 303 304 303 303 302 302 305 304 308 320 323 316 313 316 317 316 314 313 312 316 318 318 319 321 323 319 317 320 321 319 320 320 319 319 321 320 315 314 318 319 318 319 319 320 321 317 316 314 309 308 312 313 313 315 316 314 316 322 323 320 323 325 323 326 328 320 313 317 321 318 317 318 316 315 314 313 314 315 315 315 315 316 316 317 316
305 304 304 304 303 304 304 304 305 306 307 316 326 321 315 315 316 317 318 315 312 314 317 317 320 323 321 319 316 315 320 322 319 319 319 318 319 320 319 316 314 315 318 319 318 316 320 323 315 309 309 308 309 309 306 310 317 315 313 317 321 319 318 322 323 321 321 326 326 321 323 323 317 318 318 314 314 314 312 314 314 315 315 315 318 318 318 318
305 307 308 305 304 304 304 306 307 307 312 324 326 319 318 318 317 320 320 315 314 318 320 318 320 324 321 319 319 317 317 320 319 319 317 316 318 318 315 312 311 312 316 319 318 316 320 323 312 307 309 306 306 307 304 309 316 316 316 319 316 311 315 322 322 318 317 324 327 322 322 324 321 320 318 315 315 314 313 314 314 316 316 317 320 322 321 321
306 309 311 306 304 305 304 306 307 307 318 330 326 319 318 316 313 314 316 314 315 317 320 319 318 320 320 319 321 321 318 319 319 318 317 317 317 315 313 311 309 309 309 312 317 315 316 321 315 310 314 308 303 305 305 305 309 317 319 315 312 311 314 318 322 323 322 324 323 319 318 321 321 320 317 316 316 315 314 314 314 316 317 318 321 323 321 320
304 308 312 307 303 305 306 306 307 312 324 329 324 319 315 313 311 309 310 312 314 316 320 321 318 318 320 320 322 321 319 319 319 318 317 317 316 313 313 313 310 307 305 307 315 313 313 321 318 310 313 310 303 307 313 309 306 312 315 310 312 319 320 320 321 324 324 323 324 323 319 320 323 321 318 318 318 318 316 315 315 316 317 318 319 320 319 319
305 311 318 310 303 305 306 305 309 319 326 325 323 321 313 310 309 305 307 311 314 317 321 323 320 317 318 321 323 321 319 320 319 318 317 318 318 314 312 313 310 306 304 307 314 313 312 318 320 311 309 311 309 311 319 319 310 308 311 310 311 316 319 320 319 321 324 325 328 329 324 323 326 323 319 319 319 318 318 318 318 316 316 316 316 318 319 318
309 318 322 308 303 307 307 309 321 329 326 320 322 320 310 309 309 304 305 309 313 316 321 324 322 319 318 318 319 319 319 319 318 317 317 317 318 316 311 310 310 306 303 306 311 312 312 316 320 314 308 312 316 313 316 319 315 313 315 314 314 313 313 316 317 317 320 324 325 327 329 328 324 319 319 318 319 320 320 321 320 317 316 316 316 317 318 317
310 319 321 307 303 307 310 318 326 326 324 319 317 314 308 308 309 305 304 305 308 310 314 318 320 319 318 317 317 316 315 316 316 316 316 315 316 318 312 306 307 307 306 309 311 312 314 315 317 318 315 319 319 308 305 308 309 313 315 315 315 314 315 320 321 316 316 320 322 323 328 330 322 317 318 316 317 320 321 321 321 317 315 315 316 316 316 317
313 319 316 307 303 307 318 328 320 314 320 319 312 310 308 306 306 306 304 304 307 308 309 313 315 316 316 317 317 315 314 315 315 316 317 316 317 317 309 302 303 305 307 312 313 310 310 312 316 320 319 316 310 302 301 303 302 306 310 311 312 312 316 323 325 321 317 316 317 317 322 327 322 316 315 315 316 317 316 318 320 317 315 315 316 316 317 317
321 320 311 305 304 309 322 329 320 314 314 308 302 304 305 304 304 306 304 305 308 309 311 314 314 315 314 313 314 313 315 317 317 317 316 315 314 308 303 301 303 305 307 311 313 309 308 312 317 320 317 310 305 301 301 301 302 308 311 309 310 312 315 317 318 319 319 319 320 320 323 329 325 318 315 315 316 316 316 316 318 318 317 316 317 316 316 316
321 318 313 308 304 310 323 327 323 320 310 303 303 304 304 303 303 305 306 307 308 309 313 314 313 313 311 310 312 313 312 315 319 319 315 314 312 303 300 302 303 306 308 312 312 310 313 315 316 320 320 316 313 311 310 307 307 312 314 310 310 312 313 314 314 314 319 324 324 325 330 334 327 322 319 316 316 319 319 317 317 319 321 319 317 315 315 316
316 316 317 312 306 312 323 322 321 322 313 307 309 308 306 306 304 304 306 307 306 307 312 314 311 310 308 308 310 309 307 311 316 317 313 313 310 301 299 302 303 304 306 306 307 309 313 314 315 319 320 319 320 320 319 317 313 313 313 311 311 313 314 316 316 316 321 324 322 325 331 328 320 321 321 317 316 318 318 317 316 318 320 319 317 317 317 316
317 318 318 318 314 315 317 312 314 320 317 314 315 310 309 310 307 303 304 307 306 305 307 309 309 309 309 311 314 314 311 309 311 313 313 313 309 302 300 302 302 304 305 305 304 307 310 312 314 317 320 321 322 321 318 316 313 314 316 315 313 313 314 315 316 319 323 321 320 323 323 318 316 316 316 315 316 317 317 317 315 315 315 316 316 316 316 315
317 319 316 316 318 318 316 312 312 316 318 318 318 313 311 312 310 306 303 305 305 304 306 306 307 312 314 315 317 318 315 310 309 311 312 312 307 302 300 301 301 303 306 305 303 305 309 314 315 315 318 319 317 316 316 314 312 314 316 318 317 313 313 314 315 319 322 319 317 320 320 318 317 315 314 315 315 315 316 315 313 313 313 314 314 314 314 315
314 315 309 307 314 318 319 318 315 314 316 315 313 312 313 313 313 312 308 304 303 304 308 311 311 313 316 316 317 317 315 314 314 313 311 311 309 305 303 302 301 304 306 303 300 304 310 315 314 312 314 316 313 313 315 313 313 313 313 317 318 316 314 314 313 315 319 318 316 318 319 318 315 313 313 313 312 313 314 313 313 313 313 314 314 314 315 315
310 311 305 303 311 314 311 313 314 314 316 313 311 312 313 315 316 313 308 306 306 304 307 314 316 313 314 314 315 318 318 315 315 315 312 310 310 309 310 309 305 302 303 302 301 302 308 315 313 308 311 314 314 314 312 311 312 312 312 314 316 316 315 313 313 312 314 316 315 315 315 314 312 311 311 310 312 313 313 313 314 312 314 316 315 314 314 314
312 314 310 309 310 307 304 308 311 315 315 311 313 315 313 315 317 312 307 310 313 309 305 312 317 314 315 315 314 317 318 315 316 317 314 312 312 310 312 313 309 302 300 302 302 300 305 314 313 307 310 315 313 312 311 310 310 311 311 312 312 314 314 312 311 311 311 313 313 312 313 312 310 309 310 312 313 313 313 315 315 314 315 315 315 314 313 313
306 306 307 316 316 307 306 309 309 314 314 311 314 315 312 315 317 314 310 310 313 313 309 312 316 314 313 313 314 315 315 314 317 317 313 314 314 312 311 312 310 306 302 302 303 302 303 310 310 307 313 317 311 310 311 311 311 312 312 312 310 310 312 312 312 311 311 312 311 310 312 312 309 310 312 314 314 314 316 317 317 318 317 314 313 313 313 313
303 303 304 317 320 309 308 310 309 312 314 314 317 315 313 315 313 313 314 311 309 311 309 311 314 313 312 314 314 313 311 310 310 309 308 309 309 309 310 310 310 310 305 302 304 305 305 309 311 311 315 316 310 308 310 310 312 316 318 319 315 311 310 310 311 312 311 310 310 312 313 311 310 312 313 315 315 314 315 316 316 317 317 315 313 311 311 313
Wind_Speed
4 2 3 6 8 11 10 9 13 17 16 13 11 11 12 11 10 10 9 10 10 11 11 13 14 15 16 15 13 10 9 8 7 15 15 13 24 21 15 11 9 6 3 3 5 8 6 4 4 3 4 2 1 0 2 2 2 2 2 1 2 2 2 2 3 3 3 6 4 5 4 2 3 3 2 1 4 5 5 5 5 5 6 8 7 4 4 4
4 0 3 6 6 8 9 9 11 14 13 12 11 11 11 10 10 9 9 10 9 8 7 9 12 13 14 14 12 9 7 7 5 11 11 19 24 15 9 7 7 4 2 3 6 9 6 2 2 5 3 2 1 1 1 2 2 1 2 1 3 3 3 4 5 4 2 6 6 5 3 1 2 1 1 2 4 5 6 6 6 7 7 10 10 9 6 5
8 3 2 4 4 6 9 10 11 11 10 9 10 10 10 10 10 9 10 9 6 3 6 10 11 11 13 12 10 7 4 4 3 7 13 24 21 10 6 4 4 4 2 3 8 9 7 5 4 5 2 3 2 0 2 2 2 1 2 3 3 3 5 6 6 5 6 4 6 5 3 1 1 1 1 2 5 4 5 2 3 4 2 2 5 8 5 3
9 4 3 5 5 5 7 11 11 10 8 8 10 10 10 9 9 9 9 5 2 1 8 13 13 11 11 10 7 4 1 1 1 8 18 25 19 9 5 2 2 3 1 3 7 7 7 8 7 5 2 3 0 3 3 3 2 2 3 4 2 3 6 5 6 6 6 4 4 5 3 1 2 1 1 3 5 3 1 3 2 2 3 3 2 6 6 5
8 5 8 10 9 7 8 10 10 9 8 10 11 11 10 9 8 9 7 3 3 5 8 11 10 7 1 3 4 3 1 0 3 12 22 25 18 9 4 2 1 2 3 2 5 7 6 5 5 4 2 3 1 3 3 3 2 3 4 5 4 3 5 4 5 5 6 4 4 4 2 1 1 1 4 4 4 2 2 3 1 2 2 2 2 1 4 6
10 10 12 12 10 9 9 10 9 9 10 12 12 11 10 9 8 8 7 6 7 7 5 9 9 9 12 11 6 2 1 0 7 17 23 24 18 9 6 4 2 3 4 4 6 6 5 5 4 1 2 3 4 4 2 1 1 2 4 5 6 6 6 5 4 4 5 4 3 1 1 2 2 4 2 4 7 4 2 0 3 1 2 2 4 5 5 5
12 12 12 11 10 10 9 10 10 11 12 12 11 10 9 8 8 8 7 7 9 9 3 6 10 12 12 12 8 4 3 2 11 19 21 23 18 10 6 6 4 4 5 6 7 5 4 4 3 3 3 3 5 5 3 3 4 5 4 4 6 7 6 5 4 3 4 4 3 3 3 4 5 3 1 3 8 7 7 3 3 3 4 5 6 6 6 7
11 11 10 10 10 10 10 11 12 13 12 11 10 9 8 7 9 8 7 8 10 11 7 6 4 3 4 4 3 4 4 4 14 18 20 22 20 12 6 6 7 6 4 5 7 5 4 4 2 2 3 3 4 3 3 4 7 6 5 4 4 5 5 4 4 3 2 1 2 3 5 6 4 1 2 7 9 8 7 4 5 4 5 6 6 6 6 7
9 9 9 9 10 10 11 11 11 11 10 10 9 7 7 7 8 5 4 7 10 10 7 10 10 5 2 1 2 1 2 7 13 16 19 22 21 13 6 6 8 4 2 5 7 7 3 3 4 2 5 4 4 4 4 3 3 4 5 5 5 5 4 3 3 3 1 1 1 3 6 4 1 3 5 9 8 4 5 5 5 5 5 6 6 6 6 6
9 9 9 9 9 9 9 9 9 10 10 9 7 6 5 4 3 1 2 7 8 5 3 7 9 5 4 3 2 1 3 8 11 14 17 20 19 17 10 8 9 5 4 7 10 9 4 4 4 3 7 5 5 4 6 3 3 5 8 6 6 5 3 1 1 2 2 2 2 3 5 4 2 1 5 5 4 5 6 5 6 6 6 7 6 6 7 6
8 8 9 9 8 7 6 6 8 9 9 8 5 5 2 1 1 1 3 7 7 3 5 7 8 4 3 2 2 2 4 8 10 14 16 16 18 20 17 11 10 7 5 8 11 10 8 7 5 3 3 3 4 5 5 5 6 8 8 7 6 4 3 2 3 2 2 2 4 3 6 6 2 2 6 4 5 6 6 6 7 6 7 7 6 6 7 7
7 8 8 7 6 5 4 5 8 8 6 4 4 4 2 1 2 2 2 4 5 7 11 11 10 7 8 9 4 2 5 8 10 13 14 13 14 17 18 13 11 10 8 8 9 10 8 6 5 5 1 1 3 3 3 3 5 6 4 4 4 3 3 4 3 2 2 1 2 2 5 5 5 7 8 6 6 5 6 6 6 7 7 6 6 6 6 7
6 7 7 6 4 3 2 5 6 3 2 2 3 3 2 2 2 2 1 2 2 4 4 3 3 2 4 5 3 4 6 9 12 11 10 10 9 12 17 16 15 14 12 12 10 10 9 6 10 9 3 3 3 2 2 2 3 4 3 2 4 2 2 5 2 2 3 1 1 1 3 2 8 10 5 6 6 5 5 6 6 6 6 6 6 5 5 7
5 5 5 5 3 3 1 2 1 2 2 1 2 3 2 1 2 3 0 3 0 3 3 2 1 3 4 2 1 5 6 8 12 12 11 10 7 9 14 16 17 17 16 17 13 12 12 10 14 10 3 5 3 3 4 2 1 2 1 1 3 2 1 3 1 2 2 1 1 1 2 3 5 8 5 6 6 5 5 7 7 6 5 5 5 5 5 6
3 3 5 6 4 3 1 4 7 7 6 4 2 3 3 2 2 5 2 3 4 5 4 3 2 2 4 2 0 5 7 7 11 14 13 12 9 7 9 11 12 13 14 14 12 11 11 9 9 6 3 4 2 3 3 2 2 2 2 1 3 2 1 3 0 1 1 1 2 1 3 4 2 7 6 5 6 5 6 6 6 6 6 5 5 5 5 5
2 4 6 6 5 3 3 6 7 7 7 9 7 1 3 2 2 5 3 3 3 4 3 3 3 0 3 2 1 3 7 7 9 11 10 11 10 7 9 8 6 7 8 8 8 8 9 8 5 2 2 1 0 2 2 2 2 3 2 2 1 1 1 2 0 1 3 2 3 3 3 4 2 5 6 6 6 6 6 6 6 6 5 5 5 4 4 4
3 5 6 6 5 4 3 4 4 3 4 7 9 6 5 2 2 3 2 3 4 4 3 4 5 2 3 2 2 3 4 6 9 9 9 11 8 7 9 5 3 5 5 4 4 3 5 5 2 0 2 2 3 1 1 1 2 2 2 2 1 1 2 1 0 1 2 3 3 3 4 6 5 4 7 8 7 7 6 7 6 6 5 5 5 3 3 3
4 5 6 5 4 3 3 4 3 2 0 3 6 7 10 10 9 7 3 2 2 3 2 5 6 2 2 3 1 3 5 6 9 10 10 9 6 7 7 3 4 6 4 1 2 2 2 1 0 1 3 4 6 3 1 1 2 2 2 2 1 2 2 1 1 1 3 3 3 4 5 9 10 8 6 9 9 8 7 7 6 6 5 4 3 3 3 3
4 5 5 5 4 4 5 5 5 5 4 4 2 2 4 7 9 12 14 8 1 2 0 4 4 2 1 2 0 4 6 6 7 9 11 9 6 7 6 4 4 4 2 0 2 3 2 1 2 3 4 5 5 4 2 2 3 4 3 2 3 4 1 2 2 1 3 2 5 6 6 9 9 8 6 7 10 8 7 7 6 6 4 3 3 3 4 4
5 5 5 5 5 5 7 8 9 9 8 6 3 2 2 1 1 5 13 12 5 2 1 2 3 2 2 2 3 7 5 4 3 7 13 11 7 7 4 3 3 1 3 1 2 2 1 5 5 3 4 4 4 4 4 4 5 4 4 4 4 2 1 2 2 1 3 3 5 6 6 9 8 8 8 5 9 7 7 6 6 6 5 5 5 6 6 5
4 5 5 4 4 6 8 10 11 9 7 5 2 1 1 2 1 1 2 4 3 3 2 1 1 4 2 1 5 7 2 1 1 6 14 10 4 3 1 2 1 2 2 0 1 2 2 5 4 3 3 3 3 3 4 4 5 4 3 5 3 1 2 2 3 1 2 2 4 4 7 10 8 9 7 5 8 7 7 6 6 7 7 6 6 6 5 3
4 4 4 4 3 4 5 6 6 5 3 3 3 2 1 0 4 7 4 2 2 1 1 2 2 3 2 1 5 7 0 0 1 6 15 11 1 1 2 2 3 2 1 1 1 2 5 4 2 3 2 3 3 3 4 3 4 4 4 4 3 3 3 2 2 2 0 0 4 7 8 11 10 8 4 7 6 5 5 4 3 4 5 6 6 6 4 2
4 4 4 4 2 2 3 2 3 4 4 4 3 2 3 7 11 8 2 3 2 1 0 1 1 2 1 1 5 7 1 1 2 4 15 13 1 0 3 3 5 3 3 4 1 3 3 2 1 2 3 4 2 1 4 3 1 3 3 2 2 4 3 1 0 4 5 3 4 6 7 9 8 3 2 4 3 1 2 1 1 1 3 2 2 3 4 3
3 4 4 3 1 2 3 1 5 5 5 4 4 7 8 10 10 4 0 2 2 1 1 1 1 3 2 1 6 6 2 2 1 4 12 10 1 1 2 3 4 4 4 5 7 7 4 1 2 3 3 3 2 2 5 3 1 3 4 3 1 2 2 3 4 8 7 2 3 6 5 5 2 2 1 1 3 3 1 2 3 4 4 3 2 0 3 4
2 3 3 2 2 2 3 3 5 7 6 5 7 9 8 7 3 1 1 1 1 1 1 1 0 2 2 2 5 3 2 1 1 3 8 6 2 1 1 1 2 2 3 5 9 7 3 1 1 3 3 2 2 2 3 2 2 1 2 2 1 2 3 5 7 7 4 1 2 3 3 4 3 2 3 3 1 3 4 4 6 6 5 5 4 4 5 5
2 2 2 2 3 3 2 2 6 8 7 4 7 8 6 3 0 2 1 1 1 1 2 0 1 2 3 2 3 2 1 1 1 2 4 5 3 0 2 1 2 3 2 4 5 3 2 2 2 2 2 3 1 1 1 1 2 1 2 2 1 2 3 4 6 4 2 2 3 3 3 3 6 2 2 3 2 4 4 5 7 6 6 6 6 6 5 5
3 2 3 3 4 5 2 1 6 6 2 2 8 7 3 2 2 2 2 1 1 1 1 0 0 1 2 2 1 1 1 1 1 1 3 4 3 0 2 1 1 2 1 2 2 1 1 2 3 1 1 2 1 1 1 2 2 1 3 2 2 2 3 3 4 2 1 2 3 4 3 1 5 4 1 2 1 3 5 7 7 7 7 6 6 6 6 6
4 2 3 3 4 6 3 1 6 4 1 4 8 5 3 3 2 3 2 1 2 1 1 1 0 0 0 2 1 1 1 2 2 1 1 3 3 1 2 2 2 3 2 2 2 1 2 1 1 1 1 1 1 1 2 2 1 0 1 1 2 2 2 3 2 4 3 2 3 5 3 1 5 4 1 1 1 3 5 5 4 5 6 7 7 6 6 6
6 3 2 1 2 3 3 2 5 3 0 5 8 4 3 2 2 3 3 0 1 0 1 1 1 1 0 1 1 1 1 1 2 1 1 2 2 1 3 1 4 6 2 1 3 2 0 1 1 2 0 1 0 1 2 1 1 0 1 1 1 1 2 2 2 4 2 3 1 5 3 1 4 5 2 1 2 2 1 3 3 3 2 4 6 6 6 5
7 4 1 1 1 2 1 1 1 2 4 7 7 4 2 1 3 3 0 2 1 0 2 0 1 2 1 1 1 2 2 2 1 2 2 1 1 2 2 1 1 5 3 5 6 3 2 1 1 1 1 1 1 1 1 1 2 2 1 1 1 2 2 2 3 2 2 2 3 4 3 2 2 4 1 1 1 1 3 4 4 4 2 1 3 3 4 5
9 7 3 1 2 2 1 1 2 5 7 7 6 3 1 2 2 1 2 1 2 1 2 1 1 2 2 1 1 3 2 2 2 3 2 1 2 2 2 1 1 2 2 4 4 2 2 0 1 1 1 1 1 1 1 1 2 2 1 1 1 1 1 1 2 1 3 1 3 3 3 2 1 4 1 3 3 4 4 3 5 4 2 2 2 2 3 4
10 10 7 3 2 2 0 2 6 8 7 6 5 2 1 2 1 1 2 1 1 1 0 1 1 2 2 1 2 2 1 1 3 3 2 1 2 3 2 0 0 2 1 1 1 1 2 0 1 1 1 0 1 1 1 1 2 2 2 2 2 2 2 2 2 1 1 2 3 1 2 1 4 5 2 4 4 4 4 4 5 3 2 2 1 1 2 2
10 9 9 7 3 2 4 6 7 7 6 5 2 0 2 1 1 1 0 1 0 1 0 1 1 2 2 2 2 2 1 1 2 2 1 1 1 1 2 0 1 1 1 1 1 1 1 1 1 1 1 1 1 2 1 2 2 2 1 2 2 2 2 2 3 2 1 3 3 0 2 2 3 4 3 5 5 4 4 4 4 3 1 1 3 3 4 5
9 8 8 8 7 6 6 6 6 5 4 3 1 2 3 1 2 0 0 1 1 1 1 1 0 2 3 2 1 1 1 0 2 1 0 1 0 0 0 1 1 1 0 1 1 0 0 1 1 2 1 2 1 1 1 2 3 2 1 2 2 3 2 0 1 1 2 4 3 2 1 2 2 2 3 6 5 4 4 3 3 1 1 2 3 4 5 6
6 7 6 6 6 5 4 3 3 3 3 1 3 3 2 2 1 1 1 1 0 1 1 2 1 2 3 1 1 1 1 0 1 1 1 1 0 1 1 1 3 3 1 1 0 1 2 1 1 1 2 2 1 1 0 1 2 2 1 2 1 1 1 1 1 2 1 2 2 1 2 4 3 1 3 5 3 2 3 3 2 2 3 2 3 5 5 5
4 5 5 6 6 5 3 1 1 1 1 2 4 1 2 2 0 1 0 0 1 2 1 1 1 1 1 0 1 1 0 0 0 1 1 0 1 1 1 1 3 2 2 2 1 1 1 1 1 1 1 1 2 1 1 1 1 1 2 1 2 0 2 2 1 1 2 1 3 2 3 4 2 2 1 2 2 2 3 3 3 4 4 3 4 6 5 4
2 3 2 4 8 7 3 3 2 1 1 4 4 1 1 1 1 1 2 1 0 1 2 1 0 1 1 1 1 1 1 0 1 1 1 0 1 0 2 1 2 1 2 2 1 0 0 2 2 1 1 1 1 2 1 1 1 1 1 2 2 1 2 2 0 2 1 1 3 1 2 4 3 3 3 1 3 3 4 4 4 3 2 3 5 5 2 2
2 1 3 3 10 7 3 3 3 1 1 4 2 2 1 1 2 2 3 2 0 1 0 1 0 1 1 2 2 1 2 0 1 1 1 1 0 1 2 1 2 1 1 1 2 0 1 1 2 2 1 0 1 2 2 1 1 2 1 1 0 2 0 0 1 1 1 2 4 3 2 3 3 4 3 4 5 6 6 5 2 3 3 1 2 3 3 4
1 1 2 6 11 7 3 3 2 2 3 3 1 2 1 0 1 2 2 2 1 1 1 1 0 1 0 1 1 1 2 1 1 1 0 0 1 2 1 1 1 1 1 2 2 0 1 1 2 3 1 0 1 1 0 1 1 1 2 2 1 2 1 1 1 1 1 1 4 4 4 3 4 4 3 7 8 7 7 6 4 5 4 4 4 4 3 4
3 1 0 8 10 5 4 3 3 4 3 1 1 1 0 1 1 1 2 2 1 1 1 1 0 1 1 0 1 0 1 1 1 0 0 0 1 2 2 1 1 1 1 3 2 0 1 2 2 3 2 1 1 1 1 1 1 0 1 1 0 1 1 0 1 1 2 1 2 3 4 5 5 1 2 3 5 7 7 7 6 5 3 3 3 2 2 3
3 1 1 10 8 3 4 6 4 3 2 1 1 1 0 1 1 1 2 2 1 1 0 2 1 1 1 1 1 1 1 1 1 1 1 0 1 1 2 2 2 0 1 3 2 0 1 1 1 2 2 1 1 1 1 1 0 1 2 2 1 1 1 1 1 1 1 1 2 1 4 7 5 2 4 3 3 4 5 6 6 3 1 3 3 2 2 3
2 1 2 9 5 2 4 5 2 1 1 1 0 1 1 0 1 2 1 1 1 1 0 1 2 1 1 0 1 0 1 1 1 1 1 1 1 1 1 3 3 1 1 2 1 0 1 1 1 2 2 1 1 1 0 2 1 1 1 1 1 0 2 3 1 2 0 1 1 2 2 7 6 2 2 3 3 3 3 4 4 2 2 4 4 3 2 3
1 1 2 9 5 2 3 3 0 2 3 0 2 0 1 0 1 2 1 1 1 2 1 1 1 2 1 0 1 1 1 1 2 1 1 1 1 1 1 3 3 2 1 2 1 1 1 1 1 2 1 1 0 1 2 3 1 0 2 1 0 0 2 3 3 2 1 2 2 2 2 7 6 2 1 1 1 1 2 2 5 4 4 5 5 3 2 3
1 0 1 7 6 1 2 1 1 2 2 0 1 1 1 1 1 1 1 1 1 2 1 0 1 2 1 1 1 1 1 1 1 1 1 1 0 1 2 3 3 2 2 1 0 1 1 1 1 1 3 3 3 1 1 2 1 2 2 2 2 3 4 2 1 2 1 5 7 4 4 7 4 1 2 3 2 3 5 6 6 5 5 6 4 3 2 3
1 1 1 5 7 5 2 2 3 4 3 2 1 1 1 0 1 0 1 0 0 1 0 1 1 0 2 2 2 2 2 1 1 1 1 1 1 0 2 3 3 3 3 1 0 0 0 0 2 2 1 2 2 1 1 0 1 2 1 2 2 4 5 2 1 2 2 5 6 5 5 6 5 3 4 4 2 4 6 4 3 4 6 6 4 2 2 3
1 1 1 3 6 6 2 0 2 4 4 3 2 2 2 2 1 1 1 0 1 1 1 1 2 0 1 2 2 3 2 2 2 1 1 1 1 0 1 3 3 3 2 1 1 0 1 1 3 4 5 5 4 3 2 1 1 2 3 4 4 4 5 3 2 3 4 3 4 7 8 9 12 11 9 7 5 6 7 5 4 3 4 5 4 2 2 4
1 1 0 0 2 4 3 3 3 2 3 3 3 3 3 3 2 1 1 0 0 0 0 0 0 1 2 2 2 1 1 2 2 0 2 0 2 1 2 2 2 2 1 1 1 1 1 2 4 5 7 6 2 2 3 3 3 5 4 5 7 6 6 6 6 6 4 1 6 7 6 8 13 14 11 8 6 6 7 8 7 6 6 6 5 3 3 4
1 1 1 1 1 1 1 2 1 1 1 1 1 2 3 3 2 2 1 0 0 1 1 1 1 4 4 2 2 2 0 2 0 2 1 1 2 1 1 2 1 2 1 1 1 2 2 3 2 1 5 7 5 6 5 5 5 6 6 7 8 8 9 11 12 10 5 4 9 7 4 8 14 15 13 10 7 6 7 8 7 6 6 6 4 2 3 5
2 2 0 0 1 3 2 2 1 1 2 2 1 2 2 4 3 1 1 1 2 1 1 1 3 4 5 2 2 2 3 2 2 3 2 2 2 2 1 1 0 1 0 1 1 1 2 2 1 1 4 8 7 7 5 5 4 5 7 9 8 10 13 13 13 12 8 9 14 13 12 14 18 18 14 10 8 6 7 7 6 6 6 6 4 2 3 4
1 1 1 1 2 2 2 2 1 0 1 1 0 1 2 4 4 1 1 3 1 1 3 3 3 1 2 3 2 2 2 2 1 2 3 4 1 2 3 1 2 1 1 2 1 2 0 2 1 2 3 6 4 2 0 3 4 5 9 10 10 11 11 10 11 9 7 11 15 14 12 14 18 16 10 8 8 6 6 7 7 6 5 4 3 3 2 4
1 0 1 3 2 1 1 0 1 1 1 0 0 1 2 3 5 3 2 1 2 3 5 4 3 2 3 1 5 3 2 3 3 1 2 4 2 2 2 2 5 5 3 3 2 0 1 1 1 3 1 5 3 3 1 4 4 7 12 13 13 11 8 8 9 7 9 11 10 7 7 11 13 9 5 5 6 4 6 7 6 6 4 2 2 3 3 5
2 2 1 2 2 1 1 0 1 2 0 1 1 1 1 0 0 2 2 1 4 3 1 0 2 3 2 1 4 2 2 3 3 2 2 3 3 3 3 3 5 6 5 5 3 2 3 2 1 2 1 4 3 3 3 3 4 6 9 10 11 10 8 8 7 9 11 9 5 5 8 10 7 5 5 6 5 4 6 6 5 6 6 5 4 3 4 6
Wind_Direction
22 79 49 22 9 352 342 339 349 355 351 346 345 341 341 342 336 328 320 306 292 288 283 285 282 283 285 283 294 292 310 335 356 30 48 4 342 332 322 317 324 327 295 310 299 303 293 183 155 201 158 123 76 85 331 15 348 326 289 218 100 64 58 358 25 59 135 128 138 155 173 224 122 149 136 142 224 228 241 231 215 206 206 220 237 243 218 218
338 326 45 35 355 337 326 326 352 348 335 334 335 336 334 334 329 323 319 307 300 303 299 301 292 284 282 275 280 282 294 308 334 39 29 345 344 337 322 316 326 330 280 313 313 312 301 168 159 227 163 89 304 210 228 339 0 12 316 347 52 50 49 18 38 35 35 117 134 137 147 319 54 99 128 264 245 203 237 238 199 211 216 211 218 223 222 216
303 287 34 32 330 328 319 320 343 333 319 322 324 325 325 326 322 320 322 310 288 303 342 336 321 294 274 264 263 260 281 293 331 17 348 341 348 347 339 319 338 347 304 335 324 321 313 309 297 256 123 79 319 95 131 348 350 74 30 42 71 101 79 32 44 40 13 87 127 117 99 321 97 53 150 271 296 252 245 265 179 203 211 178 187 187 191 208
288 268 306 328 313 318 305 307 321 314 305 306 311 315 315 316 315 321 331 329 238 316 351 341 332 313 273 253 245 221 254 327 10 341 337 345 353 356 355 324 9 17 355 339 321 316 301 293 287 269 112 106 306 69 53 1 2 36 31 49 79 116 90 40 43 41 5 33 96 112 126 224 124 75 260 276 301 261 200 46 37 358 16 15 80 150 169 210
279 270 288 301 299 290 282 290 298 290 288 294 301 306 304 303 310 319 319 303 274 311 349 350 344 348 352 169 165 149 138 17 356 340 342 349 354 358 5 351 338 7 4 344 319 309 284 269 270 271 95 98 123 87 29 5 47 57 45 40 33 62 93 79 56 27 354 19 80 122 156 339 73 219 220 235 260 239 97 86 93 332 343 330 317 228 210 226
272 277 284 289 287 283 281 281 279 275 281 288 294 298 297 295 304 313 298 279 288 305 3 30 36 69 88 99 114 111 127 95 347 343 345 352 357 3 16 5 302 331 350 329 311 292 263 237 232 283 78 68 57 80 61 0 157 101 73 43 33 52 86 93 66 12 353 21 51 71 347 340 272 252 212 222 242 261 321 150 159 188 244 247 261 265 258 251
270 274 278 282 283 280 276 272 271 273 278 285 290 293 293 290 298 301 289 283 289 296 313 77 70 79 86 89 91 59 74 38 346 343 348 358 5 8 20 22 18 8 352 332 318 301 292 262 195 104 94 93 68 73 55 51 75 90 100 72 55 67 79 82 82 33 12 31 24 359 315 284 254 264 17 259 247 253 266 242 147 167 223 233 240 243 244 249
270 273 274 278 280 273 271 271 273 274 277 285 288 289 288 285 293 292 285 288 294 296 269 191 146 74 64 84 96 63 69 335 336 346 354 6 14 15 22 34 33 16 6 0 343 334 323 330 39 71 80 80 80 65 13 42 61 68 102 105 87 84 86 96 110 79 18 35 7 309 271 256 244 335 327 259 250 237 226 185 152 193 222 229 237 241 242 243
270 270 271 271 271 269 271 272 273 275 279 284 285 282 280 285 293 291 293 305 305 298 267 219 217 243 293 332 287 67 31 323 335 351 1 9 14 20 36 40 30 17 36 32 7 356 342 13 16 48 95 75 78 64 350 14 59 78 110 115 106 102 101 117 134 116 213 227 53 292 274 263 94 19 277 244 239 204 157 159 179 201 221 234 233 232 233 237
266 264 263 263 263 264 266 269 272 276 281 283 278 271 272 295 299 298 359 347 332 311 259 209 207 236 263 287 317 120 341 334 343 355 6 10 13 22 35 44 39 41 64 53 33 17 25 57 23 58 94 74 64 44 354 34 103 110 110 104 104 115 114 123 231 136 222 217 168 257 281 282 93 64 263 220 178 146 148 195 203 198 223 236 230 225 226 229
263 261 260 263 260 259 262 267 273 279 283 278 266 256 250 331 344 36 16 6 1 46 105 124 129 96 52 28 48 105 347 345 352 358 5 9 16 21 25 37 44 51 81 72 46 36 52 48 12 7 91 95 78 57 40 90 115 118 119 102 104 133 126 180 227 164 244 215 180 253 281 274 153 193 242 189 156 168 185 211 203 202 221 231 229 222 218 221
262 261 262 263 258 252 256 267 277 282 278 254 242 246 229 287 331 326 2 35 43 88 105 99 98 86 66 62 58 27 355 7 4 355 1 16 27 24 27 43 56 65 92 88 44 34 48 30 36 55 39 156 125 86 88 140 124 137 160 103 117 177 164 196 213 156 230 198 166 286 298 258 200 223 235 176 163 183 205 222 211 215 218 223 228 218 216 221
266 264 258 251 240 224 243 274 280 275 226 216 240 236 223 269 327 325 268 141 64 86 108 56 65 71 52 57 24 2 16 28 13 353 3 31 41 32 35 48 63 73 83 86 63 46 54 68 88 81 33 68 117 150 144 164 125 160 221 84 139 204 200 187 180 180 218 193 151 335 331 247 204 221 216 146 166 183 210 236 227 229 226 220 222 218 224 226
270 257 232 213 200 188 249 285 94 103 128 197 252 234 233 264 17 17 142 177 65 57 53 0 95 102 71 86 335 22 30 31 17 8 17 30 39 35 38 47 59 69 74 78 76 67 71 83 90 86 31 51 117 169 114 119 180 166 54 48 184 230 194 158 150 223 228 194 193 355 292 273 195 192 162 143 176 183 211 236 231 235 233 222 214 217 230 231
263 220 190 177 168 159 120 111 110 101 90 61 9 241 229 212 40 35 94 134 82 65 57 47 82 116 89 92 284 23 26 28 12 6 14 22 25 19 17 28 41 54 65 70 69 65 65 71 76 80 50 40 110 132 114 166 212 148 72 326 213 229 175 140 70 291 344 272 224 231 268 292 122 152 154 158 181 198 229 244 243 244 238 232 222 220 231 234
199 179 171 163 154 145 123 124 121 103 80 47 36 86 184 182 40 43 83 120 87 63 42 22 357 42 116 83 20 25 22 21 2 356 7 17 19 1 348 358 11 21 35 48 56 54 53 62 59 84 121 59 86 145 160 184 203 174 194 227 188 277 208 154 321 351 353 313 230 204 259 308 59 141 163 174 187 198 231 251 249 252 248 244 242 233 238 243
158 164 164 161 155 156 158 152 143 113 72 43 44 74 114 107 12 32 68 117 99 68 59 25 4 68 93 29 32 25 354 350 355 2 8 5 4 358 354 355 342 336 335 3 32 37 40 53 27 227 129 47 1 305 174 161 231 185 223 248 142 271 238 177 32 8 311 272 224 200 230 274 279 225 190 186 195 191 216 246 247 253 249 242 243 247 259 255
160 167 169 173 180 190 200 191 185 198 290 21 40 78 93 77 58 52 47 180 224 324 358 5 8 89 59 19 50 343 325 331 358 11 2 349 346 355 354 343 310 308 292 302 351 0 26 49 233 92 74 32 18 1 59 161 271 0 343 323 358 274 238 122 95 23 312 256 239 242 245 265 273 265 215 186 192 194 211 231 236 242 244 249 245 239 260 261
182 183 187 194 206 215 215 213 226 242 269 304 327 100 100 74 66 54 41 45 18 324 305 350 357 163 79 54 254 315 317 325 359 14 -0 350 343 335 321 294 278 294 309 340 0 356 354 18 32 45 36 16 18 17 22 0 318 321 319 327 316 292 321 77 103 61 343 308 257 244 244 265 271 275 260 197 186 197 217 228 239 237 229 249 246 223 227 238
201 204 208 216 225 236 241 242 249 255 271 290 292 283 271 257 95 40 30 41 60 52 84 338 344 136 95 43 334 325 314 313 7 18 2 353 337 329 310 262 249 325 21 15 2 341 30 62 51 31 22 359 3 6 338 316 298 295 308 289 268 286 22 80 86 21 347 327 261 238 248 268 271 273 271 203 169 191 219 233 246 233 211 216 222 215 209 218
205 215 220 232 244 255 262 257 255 259 270 268 247 286 293 285 286 150 38 47 65 45 70 59 59 98 88 330 339 344 325 272 69 21 5 353 322 339 340 252 296 42 50 343 300 324 48 70 56 33 24 331 330 336 317 308 307 313 307 285 282 11 341 62 76 271 2 358 274 312 311 283 272 268 259 152 152 194 210 221 235 229 217 201 203 210 202 210
201 216 228 247 263 275 288 269 247 240 235 215 221 257 306 150 147 144 138 95 80 334 177 171 148 103 106 205 354 352 345 180 12 22 6 355 346 37 317 346 45 61 26 343 298 49 56 72 55 32 6 295 272 271 302 313 324 318 284 284 334 3 325 24 89 233 350 300 288 339 326 290 279 266 220 146 169 200 182 201 227 220 221 198 184 193 184 197
213 235 252 255 261 319 332 282 204 184 198 218 222 210 140 127 141 147 120 102 123 290 242 122 67 61 55 93 1 349 42 48 327 358 357 352 15 65 326 25 62 71 19 5 36 121 84 89 39 1 320 307 277 293 336 310 294 338 336 351 18 17 354 275 282 321 314 282 285 309 298 287 288 271 152 140 151 102 120 213 284 262 256 228 149 141 156 192
238 252 262 243 222 27 28 147 181 177 191 197 144 138 136 130 140 157 262 121 127 338 31 17 6 34 21 12 358 357 66 52 323 325 347 357 5 309 357 47 62 57 31 45 81 95 94 88 346 295 269 298 300 20 19 4 76 26 19 50 68 0 337 257 299 318 310 277 273 298 305 297 275 147 164 121 59 359 235 215 261 254 256 272 328 41 193 211
276 260 262 239 195 100 80 114 152 154 145 135 132 134 131 130 138 341 351 102 66 28 15 357 151 40 0 331 357 12 103 53 28 318 346 14 6 318 75 37 54 51 9 66 86 84 78 83 310 283 257 269 300 13 39 35 49 18 349 32 94 311 299 290 306 317 339 347 295 354 17 311 288 177 179 160 155 255 197 193 240 237 225 230 245 239 222 220
322 269 268 241 207 173 126 115 137 134 118 115 144 145 137 134 49 2 40 64 4 329 353 0 184 9 4 5 8 29 64 317 243 317 355 26 4 1 100 0 67 85 30 72 92 83 82 159 229 310 296 269 260 68 50 44 31 300 261 296 331 308 293 299 315 343 40 293 290 44 80 284 306 312 118 115 199 215 173 203 234 224 213 209 212 222 215 213
346 289 272 257 220 198 200 176 159 147 103 175 164 152 150 125 69 25 46 49 308 292 9 86 222 3 12 346 329 56 51 277 263 0 6 18 356 290 87 40 77 88 92 92 84 5 80 176 209 292 308 281 234 134 0 44 62 234 225 265 308 302 287 306 327 311 240 281 333 20 71 205 291 292 24 54 279 234 217 226 228 214 214 210 202 206 205 206
357 314 275 272 234 216 247 243 175 177 332 187 174 167 166 134 44 11 67 82 273 288 50 125 220 350 343 305 299 123 150 267 338 11 331 2 354 347 72 62 100 109 142 137 121 248 280 140 223 279 248 305 227 158 2 28 82 156 180 253 314 327 295 300 308 266 264 42 6 340 27 109 271 283 310 20 3 276 248 225 214 201 205 208 202 203 205 205
8 341 290 276 230 215 241 211 182 207 296 162 171 178 180 165 14 39 91 211 266 345 0 143 128 0 296 276 326 110 140 0 11 333 310 355 355 64 79 74 117 115 110 58 112 170 228 52 320 301 318 332 180 113 27 13 184 13 24 262 279 301 281 271 271 275 326 64 254 296 355 48 280 288 283 0 10 307 293 100 99 99 136 198 193 196 204 200
18 12 353 199 152 130 146 174 176 166 143 153 164 166 168 134 52 59 51 264 114 160 287 128 190 294 305 253 24 34 50 58 13 317 341 24 31 71 74 311 125 112 81 52 64 95 110 52 286 335 39 0 38 94 92 261 275 314 320 226 197 242 243 217 245 278 27 25 246 269 322 46 296 283 216 149 185 115 79 80 91 85 73 143 163 187 204 202
25 29 32 196 186 148 78 37 131 144 148 157 160 143 86 55 64 86 233 228 101 245 280 65 273 313 2 87 44 16 43 60 7 355 14 28 46 53 46 334 348 82 76 60 57 111 154 195 283 76 14 340 356 199 170 233 286 303 279 253 88 299 284 80 312 8 68 302 250 253 330 51 209 262 174 149 156 100 77 73 82 78 71 113 151 197 214 216
29 32 30 28 217 217 203 132 145 147 154 160 157 143 75 39 0 192 228 275 44 293 276 75 313 352 19 46 52 7 22 29 0 33 36 0 40 29 4 343 132 73 38 0 65 174 196 180 158 126 37 13 312 302 310 287 253 245 292 339 36 6 356 24 338 11 94 254 235 170 2 4 224 240 178 127 120 96 89 98 102 96 53 40 42 6 338 335
36 35 34 40 54 120 127 138 148 151 158 159 162 201 91 89 257 201 204 296 300 317 15 61 7 49 35 47 50 354 7 321 332 52 58 303 80 14 333 296 193 141 188 199 115 248 302 320 183 124 60 241 313 14 16 320 311 316 342 32 55 61 30 339 327 3 357 267 250 1 349 293 262 254 171 132 134 132 110 108 126 136 104 337 343 347 332 321
43 41 44 53 67 89 112 134 148 157 165 158 118 58 73 122 248 188 204 259 261 281 0 26 259 61 44 68 117 303 71 348 302 53 49 285 306 330 294 64 31 52 101 100 102 150 42 299 298 54 341 272 339 55 150 294 314 300 175 112 98 111 122 250 313 293 275 284 297 336 324 214 247 266 162 135 138 143 126 128 136 140 228 267 305 309 299 290
41 38 45 52 61 73 96 132 151 163 188 160 75 64 77 218 240 93 202 230 190 214 290 318 281 72 32 50 180 268 131 165 293 44 6 289 343 18 106 35 25 36 47 99 17 87 122 254 292 102 258 284 25 332 259 16 320 290 57 76 89 117 138 145 140 188 205 325 308 269 235 212 190 154 115 110 115 150 151 151 147 239 232 216 282 287 284 281
36 33 37 31 23 28 52 74 96 154 211 74 76 96 230 233 243 83 220 195 124 146 134 336 356 72 321 286 11 328 117 144 179 88 345 36 88 67 118 26 7 36 80 110 69 10 60 281 249 156 271 12 47 332 52 89 278 314 32 31 248 282 98 112 21 5 99 49 285 249 276 292 343 31 65 113 123 153 151 169 207 227 205 187 256 271 271 281
74 61 87 19 3 6 26 29 60 161 216 77 87 219 219 186 251 332 349 331 213 97 119 155 309 123 193 174 168 196 132 20 341 146 268 41 74 51 116 99 333 38 99 105 88 77 117 271 254 212 333 19 38 344 302 190 180 68 66 238 251 33 78 115 17 350 37 298 286 272 288 302 335 330 299 142 149 169 162 181 209 206 167 198 256 268 271 0
108 126 163 18 1 5 29 26 53 117 51 70 87 252 144 167 281 338 343 327 353 14 117 212 296 119 167 153 166 138 109 149 309 88 252 217 111 328 110 110 349 37 121 101 56 54 146 299 294 313 0 158 44 13 318 259 164 154 214 253 106 94 68 324 87 5 344 306 295 305 321 295 241 236 232 192 197 186 164 164 149 71 56 6 332 352 23 24
19 286 176 5 1 13 40 26 47 67 59 77 231 260 102 338 316 29 352 330 5 17 308 248 65 79 326 130 154 78 89 191 250 75 296 165 122 329 356 142 101 71 123 80 75 106 92 89 287 301 4 43 5 58 218 261 245 279 327 346 33 122 167 217 143 161 184 280 300 313 332 298 240 222 188 195 201 173 151 152 118 74 40 18 18 19 10 357
0 4 229 351 1 34 51 43 51 49 58 89 249 260 11 308 337 58 32 14 38 73 351 305 98 141 234 242 223 234 110 256 276 203 243 132 102 4 3 28 99 127 57 52 67 0 64 102 255 308 2 14 294 216 195 173 157 1 54 75 13 73 137 180 120 140 151 172 292 311 304 274 257 329 60 174 179 149 144 147 126 94 42 1 353 359 348 321
353 55 321 346 3 68 49 48 52 39 74 122 67 64 292 279 0 60 68 36 22 140 67 345 29 143 170 187 253 224 170 230 280 293 279 123 84 27 11 347 345 56 73 55 49 348 93 122 233 291 297 256 236 263 349 13 70 152 143 151 169 165 122 69 338 310 93 145 189 209 284 273 270 358 40 65 87 94 107 122 126 113 32 320 307 307 303 297
355 88 337 358 16 139 47 53 69 25 84 126 0 5 336 350 22 20 38 24 335 245 204 39 38 58 86 117 234 160 105 165 183 320 339 107 68 13 353 339 325 305 94 86 83 180 107 103 246 252 229 185 199 210 307 292 268 137 158 144 78 121 136 129 195 250 296 87 139 121 253 268 274 343 45 62 67 46 49 113 152 196 259 273 279 278 267 272
28 165 0 12 21 150 67 56 259 43 65 326 264 286 28 29 23 4 337 299 282 277 272 87 41 38 47 318 87 83 32 180 159 110 87 104 58 348 334 349 329 303 85 105 123 19 38 109 216 263 248 106 201 245 273 293 333 34 262 226 149 164 138 146 171 173 167 190 156 109 255 266 276 305 338 354 106 322 295 217 203 237 268 270 265 257 258 273
27 294 357 12 19 109 117 126 162 105 98 117 11 55 33 316 347 28 277 240 280 289 281 107 36 54 56 16 79 104 355 36 77 50 89 115 15 304 329 351 349 21 62 106 155 353 307 155 124 320 332 347 343 344 327 312 272 252 258 184 176 141 106 80 99 91 332 219 182 165 239 256 268 277 258 250 195 230 256 231 207 224 258 267 258 241 256 288
24 10 312 8 30 63 133 184 135 122 130 122 92 137 170 228 321 250 241 35 307 290 64 108 268 95 85 74 80 61 23 48 40 349 34 78 59 345 353 345 349 41 60 44 0 132 262 212 146 148 222 266 257 228 222 78 207 237 193 158 184 163 148 147 83 106 243 225 178 179 236 261 288 288 262 263 278 292 280 253 199 210 245 265 271 271 295 307
101 49 323 345 21 49 83 324 81 115 141 147 156 192 175 161 183 207 232 344 302 291 119 184 252 306 103 103 74 46 6 10 52 16 306 88 97 0 337 355 20 65 74 24 321 151 47 316 222 203 216 214 194 210 213 129 161 205 189 187 199 202 195 171 106 181 208 213 210 220 239 270 284 279 275 283 301 314 317 327 340 316 293 295 297 297 303 295
107 155 180 249 0 36 56 15 31 102 168 182 173 167 157 148 156 196 238 237 140 67 336 305 203 165 166 146 114 102 333 348 57 130 275 113 94 41 316 338 40 97 107 341 296 103 61 291 244 217 237 242 242 253 202 165 214 221 213 210 198 196 194 179 201 218 178 166 251 234 220 257 272 274 277 283 296 318 321 315 314 317 312 299 293 302 315 304
66 189 189 163 146 122 104 351 12 94 121 144 158 153 142 141 159 195 209 326 300 209 186 340 266 225 211 167 138 154 3 349 257 229 259 121 125 120 330 328 37 123 112 9 354 87 127 261 261 185 264 276 287 274 219 188 224 227 221 220 199 192 193 194 219 228 192 212 252 258 279 278 274 276 280 288 302 309 297 289 294 300 288 278 281 318 321 309
87 112 203 239 146 160 200 265 268 128 86 72 121 156 156 162 175 199 125 99 339 295 173 229 259 230 219 203 114 138 190 211 258 257 195 149 164 167 170 316 106 147 117 115 0 20 151 233 260 110 289 286 277 272 243 211 239 253 244 233 210 208 208 207 227 234 224 245 259 269 285 284 276 275 282 295 299 288 277 283 292 283 261 246 241 259 285 295
138 140 168 139 103 129 194 255 283 60 66 34 71 165 178 183 185 200 152 150 150 240 177 203 244 213 180 195 169 163 213 176 128 244 182 153 194 210 195 188 132 138 280 176 169 329 266 221 156 98 324 294 288 339 65 194 218 250 258 246 223 224 224 222 237 236 228 250 260 268 281 277 272 274 282 284 278 276 282 284 281 271 242 210 225 248 268 292
102 86 136 114 97 131 180 274 7 43 56 330 188 185 196 196 182 161 150 134 103 159 180 182 181 99 58 217 214 218 352 55 96 149 158 150 182 205 187 157 131 138 190 189 156 138 189 229 47 78 344 287 316 11 283 238 239 252 264 255 231 222 217 215 224 213 201 224 247 267 268 258 263 279 288 263 248 252 268 271 277 283 281 281 282 284 291 288
78 13 34 94 96 214 205 111 82 70 326 231 137 147 132 77 85 116 127 17 49 86 187 180 129 124 91 219 220 210 11 31 86 91 79 109 109 89 85 94 111 131 166 171 153 158 175 202 259 112 196 275 291 276 260 318 324 274 256 239 215 208 214 223 235 224 208 201 203 221 233 243 266 298 290 279 275 269 270 274 282 286 290 298 297 277 279 278